Skip Page Navigation
NASA JPL Caltech
NASA Logo - Jet Propulsion Laboratory + View the NASA Portal
+ Near-Earth Object (NEO) Program
Search JPL
JPL Home Earth Solar System Stars & Galaxies Technology
JPL Solar System Dynamics
BODIES ORBITS EPHEMERIDES TOOLS PHYSICAL DATA DISCOVERY FAQ SITE MAP
JPL Small-Body Database Browser
Search: [ help ]  
74509 Gillett (1999 FG7)
Classification: Main-belt Asteroid          SPK-ID: 2074509
Ephemeris | Orbit Diagram | Orbital Elements | Physical Parameters | Discovery Circumstances | Close-Approach Data ]

[ show orbit diagram ]
Orbital Elements at Epoch 2457000.5 (2014-Dec-09.0) TDB
Reference: JPL 13 (heliocentric ecliptic J2000)
 Element Value Uncertainty (1-sigma)   Units 
e .1377573191980646 5.7606e-08  
a 3.114650403257634 2.5653e-08 AU
q 2.685584513465691 1.8485e-07 AU
i .9951862385904022 6.3434e-06 deg
node 1.712845561314398 0.00034165 deg
peri 107.4098908553265 0.00034249 deg
M 5.990903049497353 2.3877e-05 deg
tp 2456967.088022628355
(2014-Nov-05.58802263)
0.00013314 JED
period 2007.762728659339
5.50
2.4805e-05
6.791e-08
d
yr
n .179304055634296 2.2152e-09 deg/d
Q 3.543716293049576 2.9187e-08 AU
  Orbit Determination Parameters
   # obs. used (total)      813  
   data-arc span      6294 days (17.23 yr)  
   first obs. used      1997-11-29  
   last obs. used      2015-02-22  
   planetary ephem.      DE431  
   SB-pert. ephem.      SB431-BIG16  
   condition code      0  
   fit RMS      .55421  
   data source      ORB  
   producer      Otto Matic  
   solution date      2015-Mar-09 17:31:36  

Additional Information
 Earth MOID = 1.70245 AU 
 T_jup = 3.203 
[ show covariance matrix ]

Ephemeris | Orbit Diagram | Orbital Elements | Physical Parameters | Discovery Circumstances | Close-Approach Data ]

Physical Parameter Table
Parameter Symbol Value Units Sigma Reference Notes
absolute magnitude H 14.3 mag n/a MPO309717  

74509 Gillett           Discovered 1999 Mar. 22 by C. W. Juels at Fountain Hills.
Frederick C. Gillett (1937-2001), a pioneer in infrared astronomy, was the discoverer of the infrared excess of Vega in 1983 using the Infrared Astronomy Satellite. The Gemini North 8-m Telescope was renamed the Frederick C. Gillett Gemini Telescope in his honor on 2002 Nov. 18.
NOTE: some special characters may not display properly (any characters within {} are an attempt to place the proper accent above a character)
Reference: 20050919/MPCPages.arcLast Updated: 2005-09-26

[ show close-approach data ]
Alternate Designations
 1999 FG7 = 1997 WW52 
Ephemeris | Orbit Diagram | Orbital Elements | Physical Parameters | Discovery Circumstances | Close-Approach Data ]
ABOUT SSD CREDITS/AWARDS PRIVACY/COPYRIGHT GLOSSARY LINKS
FirstGov 2015-Mar-30 04:27 UT
(server date/time)  
NASA Home Page
Site Manager:   Ryan S. Park
Webmaster  Alan B. Chamberlin